| time (UTC) | temp F | wind direction | speed MPH | gust MPH | rain 1hr in | rain 24hr in | rain mn in | humidity % | barometer mb |
| 20260507134456 | 42 | 257 | 4.0 | 7.0 | 0.00 | 0.01 | 0.01 | 81 | 891.8 |
| 20260507133952 | 41 | 249 | 5.0 | 6.0 | 0.00 | 0.01 | 0.01 | 82 | 892.0 |
| 20260507133448 | 41 | 254 | 7.0 | 10.0 | 0.05 | 0.01 | 0.01 | 81 | 892.1 |
| 20260507132947 | 41 | 246 | 7.0 | 9.0 | 0.05 | 0.01 | 0.01 | 81 | 891.9 |
| 20260507132442 | 40 | 255 | 3.0 | 5.0 | 0.00 | 0.00 | 0.00 | 84 | 891.9 |
| 20260507131939 | 40 | 248 | 7.0 | 8.0 | 0.00 | 0.00 | 0.00 | 83 | 891.9 |
| 20260507131436 | 39 | 253 | 4.0 | 6.0 | 0.00 | 0.00 | 0.00 | 85 | 892.0 |
| 20260507130933 | 39 | 261 | 6.0 | 7.0 | 0.00 | 0.00 | 0.00 | 85 | 891.8 |
| 20260507130431 | 39 | 242 | 4.0 | 5.0 | 0.00 | 0.00 | 0.00 | 85 | 891.9 |
| 20260507125929 | 39 | 271 | 6.0 | 8.0 | 0.00 | 0.00 | 0.00 | 84 | 891.9 |
| 20260507125427 | 38 | 262 | 6.0 | 7.0 | 0.00 | 0.00 | 0.00 | 85 | 891.8 |
| 20260507124924 | 37 | 264 | 5.0 | 7.0 | 0.00 | 0.00 | 0.00 | 86 | 891.9 |
| 20260507124420 | 37 | 263 | 5.0 | 7.0 | 0.00 | 0.00 | 0.00 | 87 | 891.7 |
| 20260507123919 | 36 | 269 | 6.0 | 7.0 | 0.00 | 0.00 | 0.00 | 88 | 891.7 |
| 20260507123415 | 36 | 277 | 6.0 | 8.0 | 0.00 | 0.00 | 0.00 | 89 | 891.8 |
| 20260507122912 | 36 | 269 | 5.0 | 7.0 | 0.00 | 0.00 | 0.00 | 88 | 892.0 |
| 20260507122407 | 36 | 275 | 6.0 | 8.0 | 0.00 | 0.00 | 0.00 | 88 | 891.7 |
| 20260507121904 | 36 | 266 | 5.0 | 7.0 | 0.00 | 0.00 | 0.00 | 89 | 891.6 |
| 20260507121359 | 35 | 293 | 6.0 | 7.0 | 0.00 | 0.00 | 0.00 | 91 | 891.8 |
| 20260507120856 | 34 | 286 | 4.0 | 5.0 | 0.00 | 0.00 | 0.00 | 99 | 891.8 |
| 20260507120352 | 33 | 262 | 7.0 | 9.0 | 0.00 | 0.00 | 0.00 | 99 | 891.7 |
| 20260507115848 | 33 | 262 | 4.0 | 6.0 | 0.00 | 0.00 | 0.00 | 99 | 891.9 |
| 20260507115344 | 32 | 256 | 5.0 | 5.0 | 0.00 | 0.00 | 0.00 | 99 | 891.6 |
| 20260507114840 | 31 | 250 | 4.0 | 5.0 | 0.00 | 0.00 | 0.00 | 99 | 891.8 |
| 20260507114337 | 31 | 249 | 3.0 | 3.0 | 0.00 | 0.00 | 0.00 | 99 | 891.9 |
| 20260507113835 | 31 | 252 | 5.0 | 7.0 | 0.00 | 0.00 | 0.00 | 99 | 891.8 |
| 20260507113332 | 31 | 251 | 4.0 | 6.0 | 0.00 | 0.00 | 0.00 | 99 | 891.6 |
| 20260507112829 | 31 | 248 | 3.0 | 3.0 | 0.00 | 0.00 | 0.00 | 99 | 891.7 |
| 20260507112326 | 31 | 248 | 3.0 | 3.0 | 0.00 | 0.00 | 0.00 | 99 | 891.8 |
| 20260507111824 | 31 | 250 | 2.0 | 3.0 | 0.00 | 0.00 | 0.00 | 99 | 891.8 |
| 20260507111320 | 32 | 251 | 4.0 | 5.0 | 0.00 | 0.00 | 0.00 | 99 | 891.8 |
| 20260507110816 | 31 | 268 | 6.0 | 8.0 | 0.00 | 0.00 | 0.00 | 99 | 891.8 |
| 20260507110313 | 31 | 252 | 3.0 | 3.0 | 0.00 | 0.00 | 0.00 | 99 | 891.9 |
| 20260507105810 | 31 | 252 | 3.0 | 5.0 | 0.00 | 0.00 | 0.00 | 99 | 891.8 |
| 20260507105307 | 31 | 255 | 4.0 | 5.0 | 0.00 | 0.00 | 0.00 | 99 | 891.7 |
| 20260507104804 | 30 | 253 | 5.0 | 7.0 | 0.00 | 0.00 | 0.00 | 99 | 891.8 |
| 20260507104300 | 30 | 248 | 3.0 | 3.0 | 0.00 | 0.00 | 0.00 | 99 | 891.9 |
| 20260507103756 | 30 | 247 | 4.0 | 5.0 | 0.00 | 0.00 | 0.00 | 99 | 892.0 |
| 20260507103252 | 30 | 248 | 3.0 | 3.0 | 0.00 | 0.00 | 0.00 | 99 | 891.7 |
| 20260507102749 | 30 | 247 | 5.0 | 7.0 | 0.00 | 0.00 | 0.00 | 99 | 892.0 |
| 20260507102245 | 30 | 250 | 5.0 | 6.0 | 0.00 | 0.00 | 0.00 | 99 | 891.9 |
| 20260507101742 | 30 | 248 | 4.0 | 5.0 | 0.00 | 0.00 | 0.00 | 99 | 891.8 |
| 20260507101237 | 30 | 254 | 5.0 | 6.0 | 0.00 | 0.00 | 0.00 | 99 | 891.9 |
| 20260507100734 | 30 | 267 | 4.0 | 6.0 | 0.00 | 0.00 | 0.00 | 99 | 892.0 |
| 20260507100233 | 29 | 256 | 3.0 | 5.0 | 0.00 | 0.00 | 0.00 | 99 | 891.9 |
| 20260507095730 | 29 | 259 | 5.0 | 6.0 | 0.00 | 0.00 | 0.00 | 99 | 891.8 |
| 20260507095226 | 29 | 250 | 3.0 | 3.0 | 0.00 | 0.00 | 0.00 | 99 | 892.1 |
| 20260507094723 | 29 | 252 | 3.0 | 3.0 | 0.00 | 0.00 | 0.00 | 99 | 892.0 |
| 20260507094220 | 29 | 252 | 4.0 | 5.0 | 0.00 | 0.00 | 0.00 | 99 | 891.9 |
| 20260507093717 | 30 | 249 | 4.0 | 6.0 | 0.00 | 0.00 | 0.00 | 99 | 892.1 |
| 20260507093216 | 30 | 249 | 3.0 | 5.0 | 0.00 | 0.00 | 0.00 | 99 | 892.0 |
| 20260507092713 | 30 | 249 | 3.0 | 5.0 | 0.00 | 0.00 | 0.00 | 99 | 892.0 |
| 20260507092209 | 29 | 249 | 3.0 | 3.0 | 0.00 | 0.00 | 0.00 | 99 | 892.0 |
| 20260507091705 | 29 | 250 | 4.0 | 5.0 | 0.00 | 0.00 | 0.00 | 99 | 892.2 |
| 20260507091202 | 30 | 253 | 3.0 | 3.0 | 0.00 | 0.00 | 0.00 | 99 | 892.0 |
| 20260507090657 | 30 | 245 | 5.0 | 6.0 | 0.00 | 0.00 | 0.00 | 99 | 891.9 |
| 20260507090155 | 30 | 264 | 4.0 | 5.0 | 0.00 | 0.00 | 0.00 | 99 | 892.2 |
| 20260507085652 | 30 | 252 | 4.0 | 6.0 | 0.00 | 0.00 | 0.00 | 99 | 892.1 |
| 20260507085148 | 30 | 255 | 3.0 | 3.0 | 0.00 | 0.00 | 0.00 | 99 | 892.4 |
| 20260507084645 | 30 | 262 | 5.0 | 7.0 | 0.00 | 0.00 | 0.00 | 99 | 892.1 |
| 20260507084142 | 30 | 250 | 4.0 | 5.0 | 0.00 | 0.00 | 0.00 | 99 | 892.2 |
| 20260507083639 | 30 | 254 | 5.0 | 6.0 | 0.00 | 0.00 | 0.00 | 99 | 892.2 |
| 20260507083136 | 30 | 254 | 4.0 | 6.0 | 0.00 | 0.00 | 0.00 | 99 | 892.3 |
| 20260507082631 | 30 | 255 | 4.0 | 5.0 | 0.00 | 0.00 | 0.00 | 99 | 892.4 |
| 20260507082128 | 30 | 253 | 4.0 | 5.0 | 0.00 | 0.00 | 0.00 | 99 | 892.3 |
| 20260507081625 | 30 | 251 | 5.0 | 6.0 | 0.00 | 0.00 | 0.00 | 99 | 892.6 |
| 20260507081121 | 30 | 248 | 2.0 | 2.0 | 0.00 | 0.00 | 0.00 | 99 | 892.5 |
| 20260507080618 | 30 | 249 | 4.0 | 5.0 | 0.00 | 0.00 | 0.00 | 99 | 892.6 |
| 20260507080114 | 30 | 247 | 1.0 | 1.0 | 0.00 | 0.00 | 0.00 | 99 | 892.7 |
| 20260507075609 | 30 | 247 | 2.0 | 2.0 | 0.00 | 0.00 | 0.00 | 99 | 892.9 |
| 20260507075105 | 30 | 247 | 3.0 | 3.0 | 0.00 | 0.00 | 0.00 | 99 | 892.6 |
| 20260507074603 | 30 | 264 | 1.0 | 1.0 | 0.00 | 0.00 | 0.00 | 99 | 893.0 |
| 20260507074101 | 30 | 251 | 2.0 | 3.0 | 0.00 | 0.00 | 0.00 | 99 | 893.1 |
| 20260507073556 | 30 | 249 | 3.0 | 3.0 | 0.00 | 0.00 | 0.00 | 99 | 893.1 |
| 20260507073053 | 31 | 248 | 2.0 | 3.0 | 0.00 | 0.00 | 0.00 | 99 | 893.1 |
| 20260507072550 | 31 | 248 | 2.0 | 2.0 | 0.00 | 0.00 | 0.00 | 99 | 892.9 |
| 20260507072047 | 31 | 249 | 1.0 | 1.0 | 0.00 | 0.00 | 0.00 | 99 | 892.9 |
| 20260507071545 | 31 | 269 | 2.0 | 2.0 | 0.00 | 0.00 | 0.00 | 99 | 892.9 |
| 20260507071041 | 31 | 269 | 0.0 | 1.0 | 0.00 | 0.00 | 0.00 | 99 | 893.2 |
| 20260507070538 | 31 | 269 | 0.0 | 0.0 | 0.00 | 0.00 | 0.00 | 99 | 893.2 |
| 20260507070035 | 30 | 269 | 0.0 | 0.0 | 0.00 | 0.00 | 0.00 | 99 | 893.3 |
| 20260507065532 | 30 | 269 | 0.0 | 0.0 | 0.00 | 0.00 | 0.00 | 99 | 893.2 |
| 20260507065029 | 31 | 272 | 1.0 | 2.0 | 0.00 | 0.00 | 0.00 | 99 | 893.2 |
| 20260507064527 | 31 | 272 | 0.0 | 0.0 | 0.00 | 0.00 | 0.00 | 99 | 893.4 |
| 20260507064025 | 31 | 272 | 0.0 | 0.0 | 0.00 | 0.00 | 0.00 | 99 | 893.4 |
| 20260507063522 | 31 | 275 | 0.0 | 0.0 | 0.00 | 0.00 | 0.00 | 99 | 893.3 |
| 20260507063020 | 32 | 275 | 0.0 | 0.0 | 0.00 | 0.00 | 0.00 | 99 | 893.4 |
| 20260507062516 | 32 | 275 | 0.0 | 0.0 | 0.00 | 0.00 | 0.00 | 99 | 893.3 |
| 20260507062014 | 31 | 275 | 0.0 | 0.0 | 0.00 | 0.00 | 0.00 | 99 | 893.5 |
| 20260507061511 | 32 | 275 | 0.0 | 0.0 | 0.00 | 0.00 | 0.00 | 99 | 893.4 |
| 20260507061009 | 32 | 275 | 0.0 | 0.0 | 0.00 | 0.00 | 0.00 | 99 | 893.3 |
| 20260507060506 | 32 | 275 | 0.0 | 0.0 | 0.00 | 0.00 | 0.00 | 99 | 893.2 |
| 20260507060003 | 32 | 275 | 0.0 | 0.0 | 0.00 | 0.23 | 0.23 | 99 | 893.2 |
| 20260507055458 | 32 | 275 | 0.0 | 0.0 | 0.00 | 0.23 | 0.23 | 99 | 893.3 |
| 20260507054955 | 32 | 276 | 1.0 | 1.0 | 0.00 | 0.23 | 0.23 | 99 | 893.3 |
| 20260507054450 | 32 | 286 | 0.0 | 0.0 | 0.00 | 0.23 | 0.23 | 99 | 893.4 |
| 20260507053948 | 32 | 286 | 0.0 | 0.0 | 0.00 | 0.23 | 0.23 | 99 | 893.1 |
| 20260507053446 | 32 | 287 | 0.0 | 0.0 | 0.00 | 0.23 | 0.23 | 99 | 893.2 |
| 20260507052944 | 32 | 287 | 0.0 | 0.0 | 0.00 | 0.23 | 0.23 | 99 | 893.2 |
| 20260507052441 | 32 | 287 | 0.0 | 0.0 | 0.00 | 0.23 | 0.23 | 99 | 893.1 |
| 20260507051938 | 33 | 286 | 0.0 | 0.0 | 0.00 | 0.23 | 0.23 | 99 | 893.1 |
| 20260507051436 | 32 | 287 | 0.0 | 0.0 | 0.00 | 0.23 | 0.23 | 99 | 893.2 |
| 20260507050932 | 32 | 287 | 0.0 | 0.0 | 0.00 | 0.23 | 0.23 | 99 | 893.0 |
| 20260507050429 | 32 | 287 | 0.0 | 0.0 | 0.00 | 0.23 | 0.23 | 99 | 892.7 |
| 20260507045926 | 32 | 287 | 0.0 | 0.0 | 0.00 | 0.23 | 0.23 | 99 | 893.0 |
| 20260507045422 | 33 | 287 | 0.0 | 0.0 | 0.00 | 0.23 | 0.23 | 99 | 893.1 |
| 20260507044920 | 33 | 287 | 0.0 | 0.0 | 0.00 | 0.23 | 0.23 | 99 | 893.2 |
| 20260507044416 | 33 | 287 | 0.0 | 0.0 | 0.00 | 0.23 | 0.23 | 99 | 893.3 |
| 20260507043912 | 33 | 287 | 0.0 | 0.0 | 0.00 | 0.23 | 0.23 | 99 | 893.3 |
| 20260507043409 | 33 | 286 | 0.0 | 0.0 | 0.00 | 0.23 | 0.23 | 99 | 893.1 |
| 20260507042905 | 33 | 287 | 0.0 | 0.0 | 0.00 | 0.23 | 0.23 | 99 | 893.3 |
| 20260507042402 | 33 | 340 | 0.0 | 0.0 | 0.00 | 0.23 | 0.23 | 99 | 893.4 |
| 20260507041857 | 33 | 341 | 0.0 | 0.0 | 0.00 | 0.23 | 0.23 | 99 | 893.2 |
| 20260507041355 | 33 | 341 | 0.0 | 0.0 | 0.00 | 0.23 | 0.23 | 99 | 893.0 |
| 20260507040852 | 33 | 341 | 0.0 | 0.0 | 0.00 | 0.23 | 0.23 | 99 | 893.1 |
| 20260507040348 | 33 | 341 | 0.0 | 0.0 | 0.00 | 0.23 | 0.23 | 99 | 893.2 |
| 20260507035844 | 33 | 341 | 0.0 | 0.0 | 0.00 | 0.23 | 0.23 | 99 | 893.1 |
| 20260507035340 | 33 | 341 | 0.0 | 0.0 | 0.00 | 0.23 | 0.23 | 99 | 893.3 |
| 20260507034837 | 33 | 341 | 0.0 | 0.0 | 0.00 | 0.23 | 0.23 | 99 | 893.1 |
| 20260507034334 | 33 | 341 | 0.0 | 0.0 | 0.00 | 0.23 | 0.23 | 99 | 893.2 |
| 20260507033832 | 33 | 341 | 0.0 | 0.0 | 0.00 | 0.23 | 0.23 | 99 | 893.4 |
| 20260507033330 | 33 | 341 | 0.0 | 0.0 | 0.00 | 0.23 | 0.23 | 99 | 893.3 |
| 20260507032826 | 33 | 341 | 0.0 | 0.0 | 0.00 | 0.23 | 0.23 | 99 | 893.1 |
| 20260507032322 | 33 | 341 | 0.0 | 0.0 | 0.00 | 0.23 | 0.23 | 99 | 893.4 |
| 20260507031819 | 33 | 341 | 0.0 | 0.0 | 0.00 | 0.23 | 0.23 | 99 | 893.3 |
| 20260507031316 | 33 | 341 | 0.0 | 0.0 | 0.00 | 0.23 | 0.23 | 99 | 893.3 |
| 20260507030812 | 33 | 341 | 0.0 | 0.0 | 0.00 | 0.23 | 0.23 | 99 | 893.0 |
| 20260507030311 | 34 | 341 | 0.0 | 0.0 | 0.00 | 0.23 | 0.23 | 99 | 892.9 |
| 20260507025807 | 34 | 341 | 0.0 | 0.0 | 0.00 | 0.23 | 0.23 | 99 | 893.0 |
| 20260507025306 | 34 | 341 | 0.0 | 0.0 | 0.00 | 0.23 | 0.23 | 99 | 893.2 |
| 20260507024802 | 34 | 341 | 0.0 | 0.0 | 0.00 | 0.23 | 0.23 | 99 | 893.0 |
| 20260507024259 | 34 | 341 | 0.0 | 0.0 | 0.07 | 0.23 | 0.23 | 99 | 893.1 |
| 20260507023755 | 34 | 341 | 0.0 | 0.0 | 0.07 | 0.23 | 0.23 | 99 | 892.7 |
| 20260507023252 | 34 | 341 | 0.0 | 0.0 | 0.00 | 0.22 | 0.22 | 99 | 892.6 |
| 20260507022749 | 34 | 341 | 0.0 | 0.0 | 0.00 | 0.22 | 0.22 | 99 | 892.9 |
| 20260507022245 | 34 | 341 | 0.0 | 0.0 | 0.00 | 0.22 | 0.22 | 99 | 892.9 |
| 20260507021741 | 34 | 341 | 0.0 | 0.0 | 0.05 | 0.22 | 0.22 | 99 | 892.6 |
| 20260507021237 | 34 | 341 | 0.0 | 0.0 | 0.05 | 0.22 | 0.22 | 99 | 892.7 |
| 20260507020735 | 34 | 341 | 0.0 | 0.0 | 0.00 | 0.21 | 0.21 | 99 | 892.4 |
| 20260507020232 | 33 | 341 | 0.0 | 0.0 | 0.07 | 0.21 | 0.21 | 99 | 892.5 |
| 20260507015729 | 33 | 337 | 0.0 | 1.0 | 0.07 | 0.21 | 0.21 | 99 | 892.2 |
| 20260507015226 | 33 | 312 | 0.0 | 0.0 | 0.07 | 0.20 | 0.20 | 99 | 892.4 |
| 20260507014723 | 33 | 311 | 0.0 | 0.0 | 0.07 | 0.20 | 0.20 | 99 | 892.7 |
| 20260507014219 | 33 | 318 | 0.0 | 0.0 | 0.05 | 0.19 | 0.19 | 99 | 892.6 |
| 20260507013716 | 33 | 327 | 0.0 | 0.0 | 0.05 | 0.19 | 0.19 | 99 | 892.5 |
| 20260507013214 | 33 | 327 | 0.0 | 0.0 | 0.05 | 0.19 | 0.19 | 99 | 892.4 |
| 20260507012711 | 33 | 327 | 2.0 | 2.0 | 0.00 | 0.18 | 0.18 | 99 | 892.2 |
| 20260507012206 | 33 | 324 | 0.0 | 0.0 | 0.00 | 0.18 | 0.18 | 99 | 891.9 |
| 20260507011704 | 32 | 324 | 0.0 | 0.0 | 0.00 | 0.18 | 0.18 | 99 | 892.1 |
| 20260507011200 | 33 | 324 | 0.0 | 1.0 | 0.00 | 0.18 | 0.18 | 99 | 892.0 |
| 20260507010700 | 33 | 324 | 0.0 | 0.0 | 0.07 | 0.18 | 0.18 | 99 | 891.6 |
| 20260507010156 | 33 | 335 | 1.0 | 2.0 | 0.19 | 0.18 | 0.18 | 99 | 891.4 |
| 20260507005654 | 33 | 335 | 0.0 | 0.0 | 0.12 | 0.17 | 0.17 | 99 | 891.5 |
| 20260507005155 | 33 | 335 | 0.0 | 0.0 | 0.05 | 0.15 | 0.15 | 99 | 891.5 |
| 20260507004652 | 33 | 347 | 3.0 | 5.0 | 0.05 | 0.15 | 0.15 | 99 | 891.5 |
| 20260507004149 | 34 | 351 | 0.0 | 1.0 | 0.00 | 0.14 | 0.14 | 99 | 891.6 |
| 20260507003646 | 34 | 352 | 1.0 | 2.0 | 0.00 | 0.14 | 0.14 | 99 | 891.4 |
| 20260507003145 | 34 | 334 | 6.0 | 8.0 | 0.00 | 0.14 | 0.14 | 99 | 891.6 |
| 20260507002642 | 35 | 331 | 3.0 | 6.0 | 0.00 | 0.14 | 0.14 | 99 | 891.6 |
| 20260507002138 | 34 | 350 | 9.0 | 10.0 | 0.00 | 0.14 | 0.14 | 99 | 891.3 |
| 20260507001635 | 35 | 351 | 4.0 | 5.0 | 0.00 | 0.14 | 0.14 | 99 | 891.3 |
| 20260507001133 | 35 | 352 | 7.0 | 9.0 | 0.00 | 0.14 | 0.14 | 99 | 891.5 |
| 20260507000629 | 35 | 335 | 1.0 | 2.0 | 0.00 | 0.14 | 0.14 | 99 | 891.6 |
| 20260507000124 | 35 | 352 | 5.0 | 7.0 | 0.00 | 0.14 | 0.14 | 99 | 891.4 |
| 20260506235622 | 35 | 324 | 9.0 | 13.0 | 0.07 | 0.14 | 0.14 | 99 | 891.4 |
| 20260506235122 | 35 | 349 | 6.0 | 7.0 | 0.07 | 0.14 | 0.14 | 99 | 891.5 |
| 20260506234620 | 35 | 342 | 8.0 | 13.0 | 0.00 | 0.13 | 0.13 | 99 | 891.5 |
| 20260506234116 | 35 | 352 | 5.0 | 7.0 | 0.05 | 0.13 | 0.13 | 99 | 891.3 |
| 20260506233613 | 35 | 308 | 0.0 | 2.0 | 0.12 | 0.13 | 0.13 | 99 | 891.3 |
| 20260506233110 | 35 | 1 | 3.0 | 3.0 | 0.12 | 0.12 | 0.12 | 99 | 891.0 |
| 20260506232606 | 35 | 326 | 8.0 | 10.0 | 0.05 | 0.11 | 0.11 | 99 | 891.1 |
| 20260506232102 | 38 | 339 | 9.0 | 10.0 | 0.00 | 0.10 | 0.10 | 99 | 891.0 |
| 20260506231559 | 38 | 321 | 0.0 | 0.0 | 0.14 | 0.10 | 0.10 | 99 | 890.8 |
| 20260506231058 | 38 | 322 | 0.0 | 0.0 | 0.19 | 0.10 | 0.10 | 99 | 890.5 |
| 20260506230554 | 38 | 323 | 0.0 | 0.0 | 0.24 | 0.09 | 0.09 | 99 | 890.6 |
| 20260506230051 | 38 | 325 | 0.0 | 1.0 | 0.19 | 0.07 | 0.07 | 99 | 890.5 |
| 20260506225548 | 38 | 327 | 0.0 | 0.0 | 0.12 | 0.05 | 0.05 | 99 | 890.0 |
| 20260506225044 | 38 | 328 | 0.0 | 0.0 | 0.12 | 0.04 | 0.04 | 99 | 889.8 |
| 20260506224541 | 38 | 76 | 0.0 | 0.0 | 0.07 | 0.03 | 0.03 | 99 | 889.9 |
| 20260506224038 | 38 | 76 | 0.0 | 0.0 | 0.00 | 0.02 | 0.02 | 99 | 889.5 |
| 20260506223533 | 38 | 75 | 0.0 | 1.0 | 0.00 | 0.02 | 0.02 | 99 | 889.4 |
| 20260506223030 | 38 | 75 | 3.0 | 5.0 | 0.00 | 0.02 | 0.02 | 99 | 889.5 |
| 20260506222527 | 39 | 72 | 0.0 | 1.0 | 0.00 | 0.02 | 0.02 | 99 | 889.5 |
| 20260506222023 | 39 | 72 | 2.0 | 3.0 | 0.00 | 0.02 | 0.02 | 99 | 889.3 |
| 20260506221521 | 39 | 74 | 1.0 | 1.0 | 0.00 | 0.02 | 0.02 | 99 | 889.4 |
| 20260506221019 | 38 | 52 | 2.0 | 3.0 | 0.00 | 0.02 | 0.02 | 99 | 889.6 |
| 20260506220514 | 39 | 77 | 1.0 | 2.0 | 0.00 | 0.02 | 0.02 | 99 | 889.4 |
| 20260506220010 | 39 | 48 | 1.0 | 1.0 | 0.00 | 0.02 | 0.02 | 99 | 889.3 |
| 20260506215507 | 39 | 75 | 1.0 | 2.0 | 0.00 | 0.02 | 0.02 | 99 | 889.3 |
| 20260506215003 | 39 | 69 | 3.0 | 3.0 | 0.00 | 0.02 | 0.02 | 99 | 889.4 |
| 20260506214500 | 39 | 60 | 3.0 | 5.0 | 0.00 | 0.02 | 0.02 | 99 | 889.2 |
| 20260506213957 | 39 | 58 | 2.0 | 2.0 | 0.00 | 0.02 | 0.02 | 99 | 889.2 |
| 20260506213455 | 39 | 53 | 2.0 | 2.0 | 0.00 | 0.02 | 0.02 | 99 | 889.3 |
| 20260506212952 | 39 | 72 | 0.0 | 0.0 | 0.00 | 0.02 | 0.02 | 99 | 889.2 |
| 20260506212448 | 39 | 73 | 3.0 | 5.0 | 0.00 | 0.02 | 0.02 | 99 | 889.2 |
| 20260506211943 | 39 | 73 | 0.0 | 1.0 | 0.00 | 0.02 | 0.02 | 99 | 889.3 |
| 20260506211439 | 39 | 70 | 0.0 | 1.0 | 0.00 | 0.02 | 0.02 | 99 | 889.3 |
| 20260506210937 | 39 | 67 | 3.0 | 3.0 | 0.00 | 0.02 | 0.02 | 99 | 889.4 |
| 20260506210433 | 39 | 81 | 0.0 | 0.0 | 0.00 | 0.02 | 0.02 | 99 | 889.4 |
| 20260506205930 | 39 | 100 | 2.0 | 3.0 | 0.00 | 0.02 | 0.02 | 99 | 889.5 |
| 20260506205426 | 39 | 73 | 1.0 | 1.0 | 0.00 | 0.02 | 0.02 | 99 | 889.4 |
| 20260506204923 | 39 | 69 | 1.0 | 2.0 | 0.00 | 0.02 | 0.02 | 99 | 889.3 |
| 20260506204421 | 39 | 66 | 3.0 | 5.0 | 0.00 | 0.02 | 0.02 | 99 | 889.4 |
| 20260506203918 | 39 | 72 | 0.0 | 0.0 | 0.00 | 0.02 | 0.02 | 99 | 889.4 |
| 20260506203415 | 39 | 73 | 1.0 | 2.0 | 0.00 | 0.02 | 0.02 | 99 | 889.4 |
| 20260506202912 | 39 | 95 | 4.0 | 5.0 | 0.00 | 0.02 | 0.02 | 99 | 889.6 |
| 20260506202409 | 39 | 71 | 2.0 | 3.0 | 0.00 | 0.02 | 0.02 | 99 | 889.7 |
| 20260506201905 | 39 | 78 | 2.0 | 3.0 | 0.00 | 0.02 | 0.02 | 99 | 889.6 |
| 20260506201403 | 39 | 105 | 3.0 | 5.0 | 0.00 | 0.02 | 0.02 | 99 | 889.6 |
| 20260506200859 | 39 | 79 | 3.0 | 3.0 | 0.00 | 0.02 | 0.02 | 99 | 889.4 |
| 20260506200355 | 39 | 71 | 3.0 | 3.0 | 0.00 | 0.02 | 0.02 | 99 | 889.4 |
| 20260506195852 | 39 | 91 | 2.0 | 3.0 | 0.00 | 0.02 | 0.02 | 99 | 889.6 |
| 20260506195349 | 39 | 135 | 5.0 | 7.0 | 0.00 | 0.02 | 0.02 | 99 | 889.3 |
| 20260506194846 | 39 | 90 | 3.0 | 7.0 | 0.00 | 0.02 | 0.02 | 99 | 889.6 |
| 20260506194343 | 39 | 89 | 4.0 | 6.0 | 0.00 | 0.02 | 0.02 | 99 | 889.6 |
| 20260506193840 | 39 | 88 | 2.0 | 3.0 | 0.00 | 0.02 | 0.02 | 99 | 889.6 |
| 20260506193337 | 38 | 85 | 3.0 | 6.0 | 0.00 | 0.02 | 0.02 | 99 | 889.5 |
| 20260506192833 | 39 | 77 | 3.0 | 5.0 | 0.00 | 0.02 | 0.02 | 99 | 889.4 |
| 20260506192330 | 39 | 75 | 0.0 | 1.0 | 0.00 | 0.02 | 0.02 | 99 | 889.3 |
| 20260506191827 | 39 | 88 | 0.0 | 1.0 | 0.00 | 0.02 | 0.02 | 99 | 889.3 |
| 20260506191323 | 39 | 70 | 1.0 | 2.0 | 0.00 | 0.02 | 0.02 | 99 | 889.6 |
| 20260506190820 | 39 | 77 | 3.0 | 5.0 | 0.00 | 0.02 | 0.02 | 99 | 889.5 |
| 20260506190317 | 39 | 157 | 3.0 | 3.0 | 0.00 | 0.02 | 0.02 | 99 | 889.6 |
| 20260506185814 | 39 | 96 | 3.0 | 3.0 | 0.00 | 0.02 | 0.02 | 99 | 889.3 |
| 20260506185311 | 39 | 103 | 3.0 | 3.0 | 0.00 | 0.02 | 0.02 | 99 | 889.5 |
| 20260506184808 | 38 | 120 | 0.0 | 0.0 | 0.00 | 0.02 | 0.02 | 99 | 889.4 |
| 20260506184305 | 39 | 158 | 4.0 | 6.0 | 0.00 | 0.02 | 0.02 | 99 | 889.5 |
| 20260506183802 | 39 | 103 | 2.0 | 3.0 | 0.00 | 0.02 | 0.02 | 99 | 889.3 |
| 20260506183257 | 39 | 111 | 5.0 | 6.0 | 0.00 | 0.02 | 0.02 | 99 | 889.3 |
| 20260506182754 | 38 | 80 | 3.0 | 5.0 | 0.00 | 0.02 | 0.02 | 99 | 889.4 |
| 20260506182251 | 39 | 103 | 5.0 | 7.0 | 0.00 | 0.02 | 0.02 | 99 | 889.5 |
| 20260506181749 | 39 | 99 | 5.0 | 7.0 | 0.00 | 0.02 | 0.02 | 99 | 889.6 |
| 20260506181247 | 39 | 119 | 3.0 | 3.0 | 0.00 | 0.02 | 0.02 | 99 | 889.4 |
| 20260506180744 | 39 | 102 | 4.0 | 5.0 | 0.00 | 0.02 | 0.02 | 99 | 889.2 |
| 20260506180239 | 39 | 91 | 3.0 | 5.0 | 0.00 | 0.02 | 0.02 | 99 | 889.4 |
| 20260506175736 | 39 | 133 | 2.0 | 3.0 | 0.00 | 0.02 | 0.02 | 99 | 889.3 |
| 20260506175233 | 39 | 106 | 4.0 | 5.0 | 0.00 | 0.02 | 0.02 | 99 | 889.3 |
| 20260506174731 | 39 | 105 | 5.0 | 7.0 | 0.00 | 0.02 | 0.02 | 99 | 889.4 |
| 20260506174227 | 39 | 92 | 4.0 | 6.0 | 0.00 | 0.02 | 0.02 | 99 | 889.1 |
| 20260506173725 | 39 | 92 | 5.0 | 6.0 | 0.00 | 0.02 | 0.02 | 99 | 889.3 |
| 20260506173222 | 38 | 88 | 3.0 | 3.0 | 0.00 | 0.02 | 0.02 | 99 | 889.4 |
| 20260506172719 | 39 | 96 | 4.0 | 6.0 | 0.00 | 0.02 | 0.02 | 99 | 889.4 |
| 20260506172215 | 39 | 107 | 4.0 | 5.0 | 0.00 | 0.02 | 0.02 | 99 | 889.2 |
| 20260506171713 | 39 | 122 | 5.0 | 7.0 | 0.00 | 0.02 | 0.02 | 99 | 889.2 |
| 20260506171210 | 38 | 102 | 3.0 | 5.0 | 0.00 | 0.02 | 0.02 | 99 | 889.1 |
| 20260506170708 | 40 | 87 | 5.0 | 7.0 | 0.00 | 0.02 | 0.02 | 99 | 889.2 |
| 20260506170204 | 39 | 116 | 5.0 | 6.0 | 0.00 | 0.02 | 0.02 | 99 | 888.9 |
| 20260506165702 | 39 | 95 | 6.0 | 7.0 | 0.00 | 0.02 | 0.02 | 99 | 888.9 |
| 20260506165159 | 39 | 133 | 3.0 | 5.0 | 0.00 | 0.02 | 0.02 | 99 | 888.9 |
| 20260506164656 | 39 | 99 | 5.0 | 7.0 | 0.00 | 0.02 | 0.02 | 99 | 888.7 |
| 20260506164153 | 39 | 104 | 4.0 | 6.0 | 0.00 | 0.02 | 0.02 | 99 | 888.8 |
| 20260506163649 | 38 | 111 | 5.0 | 7.0 | 0.00 | 0.02 | 0.02 | 99 | 888.9 |
| 20260506163145 | 38 | 108 | 5.0 | 9.0 | 0.00 | 0.02 | 0.02 | 99 | 888.7 |
| 20260506162641 | 38 | 107 | 5.0 | 6.0 | 0.00 | 0.02 | 0.02 | 99 | 888.8 |
| 20260506162139 | 37 | 86 | 5.0 | 7.0 | 0.00 | 0.02 | 0.02 | 99 | 888.8 |
| 20260506161636 | 37 | 84 | 5.0 | 8.0 | 0.00 | 0.02 | 0.02 | 99 | 888.8 |
| 20260506161133 | 37 | 85 | 8.0 | 10.0 | 0.00 | 0.02 | 0.02 | 99 | 888.8 |
| 20260506160630 | 37 | 108 | 7.0 | 8.0 | 0.00 | 0.02 | 0.02 | 99 | 888.8 |
| 20260506160127 | 37 | 89 | 5.0 | 7.0 | 0.00 | 0.02 | 0.02 | 99 | 888.8 |
| 20260506155626 | 37 | 96 | 5.0 | 7.0 | 0.00 | 0.02 | 0.02 | 99 | 888.8 |
| 20260506155122 | 36 | 109 | 6.0 | 7.0 | 0.00 | 0.02 | 0.02 | 99 | 888.8 |
| 20260506153219 | 36 | 90 | 5.0 | 7.0 | 0.00 | 0.02 | 0.02 | 99 | 888.6 |
| 20260506152715 | 36 | 77 | 5.0 | 7.0 | 0.00 | 0.02 | 0.02 | 99 | 888.6 |
| 20260506152213 | 36 | 88 | 3.0 | 3.0 | 0.00 | 0.02 | 0.02 | 99 | 888.6 |
| 20260506151712 | 36 | 106 | 4.0 | 5.0 | 0.00 | 0.02 | 0.02 | 99 | 889.0 |
| 20260506151208 | 36 | 105 | 3.0 | 6.0 | 0.00 | 0.02 | 0.02 | 99 | 888.6 |
| 20260506150704 | 36 | 74 | 2.0 | 3.0 | 0.00 | 0.02 | 0.02 | 99 | 888.9 |
| 20260506150201 | 36 | 82 | 2.0 | 3.0 | 0.00 | 0.02 | 0.02 | 99 | 888.8 |
| 20260506145659 | 36 | 77 | 2.0 | 3.0 | 0.00 | 0.02 | 0.02 | 99 | 888.8 |
| 20260506145155 | 36 | 72 | 5.0 | 7.0 | 0.00 | 0.02 | 0.02 | 99 | 888.6 |
| 20260506144653 | 36 | 75 | 3.0 | 5.0 | 0.00 | 0.02 | 0.02 | 99 | 888.4 |
| 20260506144149 | 36 | 74 | 3.0 | 3.0 | 0.00 | 0.02 | 0.02 | 99 | 888.8 |
| 20260506143647 | 36 | 95 | 3.0 | 5.0 | 0.00 | 0.02 | 0.02 | 99 | 888.7 |
| 20260506143145 | 36 | 95 | 3.0 | 3.0 | 0.00 | 0.02 | 0.02 | 99 | 888.5 |
| 20260506142643 | 36 | 87 | 3.0 | 6.0 | 0.00 | 0.02 | 0.02 | 99 | 888.7 |
| 20260506142141 | 36 | 86 | 4.0 | 7.0 | 0.00 | 0.02 | 0.02 | 99 | 888.8 |
| 20260506141638 | 35 | 102 | 3.0 | 6.0 | 0.00 | 0.02 | 0.02 | 99 | 888.6 |
| 20260506141136 | 36 | 83 | 6.0 | 8.0 | 0.05 | 0.02 | 0.02 | 99 | 888.6 |
| 20260506140633 | 36 | 79 | 3.0 | 3.0 | 0.05 | 0.02 | 0.02 | 99 | 888.6 |
| 20260506140130 | 36 | 75 | 2.0 | 2.0 | 0.00 | 0.01 | 0.01 | 99 | 888.7 |
| 20260506135627 | 36 | 67 | 3.0 | 6.0 | 0.00 | 0.01 | 0.01 | 99 | 888.4 |
| 20260506135124 | 36 | 113 | 2.0 | 5.0 | 0.00 | 0.01 | 0.01 | 99 | 888.5 |